Location: Malcolm X Square
(37.7810°N, 122.4297°W)
Time: 22:47:18
(UTC+00:00)

Cosmos 1515 Rocket - Pass Details

Date: 13 April 2024
Orbit: 602 x 627 km, 82.5° (Epoch: 21 May)

Event Time Altitude Azimuth Distance (km) Brightness Sun altitude
Exits shadow 12:15:10 - 178° (S) 2,876 6.7 -16.0°
Reaches altitude 10° 12:17:21 10° 176° (S) 1,995 6.0 -15.6°
Maximum altitude 12:21:44 65° 94° (E) 693 4.0 -14.8°
Drops below altitude 10° 12:26:09 10° 13° (NNE) 2,010 6.7 -14.0°
Sets 12:28:24 0° 11° (N) 2,920 7.5 -13.6°
